Boise, ID

10:05 PM MST on February 06, 2016 (GMT -0700)
Boise Air Term

Weather History for KBOI - February, 2013

Change the Weather History Date:

Monday, February 11, 2013

  Actual Average Record
Temperature  
Mean Temperature 32 °F 35 °F  
Max Temperature 42 °F 43 °F 64 °F (1961)
Min Temperature 22 °F 28 °F -1 °F (1884)
Degree Days  
Heating Degree Days 33 30  
Month to date heating degree days 338 337  
Since 1 July heating degree days 3615 3698  
Cooling Degree Days 0 0  
Month to date cooling degree days 0 0  
Year to date cooling degree days 0 0  
Moisture  
Dew Point 19 °F    
Average Humidity 63    
Maximum Humidity 88    
Minimum Humidity 37    
Precipitation  
Precipitation 0.00 in 0.04 in 0.85 in (1893)
Month to date precipitation 0.06 0.39  
Year to date precipitation 1.27 1.63  
Snow  
Snow 0.00 in 0.20 in 3.70 in (1978)
Month to date snowfall 1.8 1.4  
Since 1 July snowfall 13.6 16.2  
Snow Depth 0.00 in    
Sea Level Pressure  
Sea Level Pressure 30.23 in    
Wind  
Wind Speed 5 mph (NE)    
Max Wind Speed 14 mph    
Max Gust Speed 17 mph    
Visibility 10 miles    
Events      
T = Trace of Precipitation, MM = Missing Value Source: NWS Daily Summary

Daily Weather History Graph

Daily Weather History Graph

Search for Another Location

Airport or City:

Trip Planner

Search our weather history database for the weather conditions in past years. The results will help you decide how hot, cold, wet, or windy it might be!

Date:

Astronomy

Feb. 11, 2013 Rise Set
Actual Time 7:48 AM MST 6:10 PM MST
Civil Twilight 7:18 AM MST 6:40 PM MST
Nautical Twilight 6:45 AM MST 7:13 PM MST
Astronomical Twilight 6:11 AM MST 7:47 PM MST
Moon 8:10 AM MST (2/11) 8:17 PM MST (2/11)
Length of Visible Light 11h 21m
Length of Day
10h 21m
Waxing Crescent, 3% of the Moon is Illuminated
Feb 11
Waxing Crescent
Feb 17
First Quarter
Feb 25
Full
Mar 4
Last Quarter
Mar 11
New

Hourly Weather History & Observations

Time (MST) Temp. Windchill Dew Point Humidity Pressure Visibility Wind Dir Wind Speed Gust Speed Precip Events Conditions
12:53 AM 28.9 °F 21.9 °F 21.0 °F 72% 30.17 in 10.0 mi West 6.9 mph - N/A   Clear
1:53 AM 25.0 °F - 21.0 °F 85% 30.18 in 10.0 mi Calm Calm - N/A   Clear
2:53 AM 24.1 °F 16.0 °F 19.9 °F 84% 30.20 in 10.0 mi SSE 6.9 mph - N/A   Clear
3:53 AM 24.1 °F 19.7 °F 19.0 °F 81% 30.19 in 10.0 mi ESE 3.5 mph - N/A   Clear
4:53 AM 24.1 °F 15.2 °F 15.1 °F 69% 30.19 in 10.0 mi SE 8.1 mph - N/A   Clear
5:53 AM 23.0 °F 15.8 °F 14.0 °F 68% 30.21 in 10.0 mi SSE 5.8 mph - N/A   Clear
6:53 AM 24.1 °F 19.7 °F 12.9 °F 62% 30.22 in 10.0 mi SE 3.5 mph - N/A   Clear
7:53 AM 23.0 °F - 12.9 °F 65% 30.25 in 10.0 mi Calm Calm - N/A   Clear
8:53 AM 25.0 °F 20.7 °F 17.1 °F 72% 30.28 in 10.0 mi East 3.5 mph - N/A   Partly Cloudy
9:53 AM 30.0 °F 24.1 °F 16.0 °F 56% 30.27 in 10.0 mi ESE 5.8 mph - N/A   Clear
10:53 AM 34.0 °F - 15.1 °F 46% 30.27 in 10.0 mi Calm Calm - N/A   Clear
11:53 AM 37.0 °F 34.5 °F 14.0 °F 39% 30.25 in 10.0 mi East 3.5 mph - N/A   Clear
12:53 PM 39.0 °F - 18.0 °F 43% 30.23 in 10.0 mi Calm Calm - N/A   Clear
1:53 PM 39.0 °F 32.3 °F 21.9 °F 50% 30.23 in 10.0 mi WNW 10.4 mph - N/A   Clear
2:53 PM 41.0 °F 34.7 °F 24.1 °F 51% 30.22 in 10.0 mi NW 10.4 mph - N/A   Clear
3:53 PM 41.0 °F 35.8 °F 23.0 °F 49% 30.22 in 10.0 mi NNW 8.1 mph - N/A   Clear
4:53 PM 41.0 °F 34.7 °F 23.0 °F 49% 30.21 in 10.0 mi NW 10.4 mph - N/A   Clear
5:53 PM 37.9 °F 31.5 °F 21.9 °F 53% 30.22 in 10.0 mi NW 9.2 mph - N/A   Clear
6:53 PM 35.1 °F 31.0 °F 23.0 °F 61% 30.23 in 10.0 mi NNW 4.6 mph - N/A   Clear
7:53 PM 35.1 °F 29.3 °F 21.9 °F 59% 30.24 in 10.0 mi North 6.9 mph - N/A   Clear
8:53 PM 32.0 °F - 21.9 °F 66% 30.25 in 10.0 mi Calm Calm - N/A   Clear
9:53 PM 32.0 °F - 21.9 °F 66% 30.25 in 10.0 mi Calm Calm - N/A   Clear
10:53 PM 30.0 °F 26.5 °F 21.9 °F 72% 30.26 in 10.0 mi West 3.5 mph - N/A   Clear
11:53 PM 28.9 °F 23.9 °F 21.9 °F 75% 30.27 in 10.0 mi SSE 4.6 mph - N/A   Clear